• En España
  • Lista de países
  • Para 7 días
  • Temperatura del agua
  • Mapa Satelital
  • El tiempo en el mapa
  • Informadores
  • user-avatar
    Iniciar sesión

    Tiempo cada hora Oran

    Hoy, 22 Agosto, Martes

    Tiempo Temperatura Precipitaciones Viento Presión Humedad
    00:00 +29°C° 0 mm 3 mps 752 mmHg 62%
    01:00 +28°C° 0 mm 3 mps 752 mmHg 64%
    02:00 +28°C° 0 mm 3 mps 752 mmHg 65%
    03:00 +28°C° 0 mm 3 mps 752 mmHg 67%
    04:00 +27°C° 0 mm 2 mps 752 mmHg 68%
    05:00 +27°C° 0 mm 2 mps 752 mmHg 69%
    06:00 +27°C° 0 mm 2 mps 753 mmHg 69%
    07:00 +28°C° 0 mm 2 mps 753 mmHg 63%
    08:00 +29°C° 0 mm 2 mps 753 mmHg 56%
    09:00 +30°C° 0 mm 2 mps 753 mmHg 49%
    10:00 +33°C° 0 mm 3 mps 753 mmHg 44%
    11:00 +34°C° 0 mm 4 mps 753 mmHg 38%
    12:00 +36°C° 0 mm 4 mps 752 mmHg 33%
    13:00 +36°C° 0 mm 5 mps 752 mmHg 31%
    14:00 +37°C° 0 mm 5 mps 752 mmHg 30%
    15:00 +38°C° 0 mm 6 mps 751 mmHg 28%
    16:00 +36°C° 0 mm 5 mps 751 mmHg 30%
    17:00 +35°C° 0 mm 5 mps 751 mmHg 31%
    18:00 +34°C° 0 mm 5 mps 751 mmHg 33%
    19:00 +34°C° 0 mm 5 mps 751 mmHg 36%
    20:00 +33°C° 0 mm 4 mps 751 mmHg 40%
    21:00 +32°C° 0 mm 4 mps 751 mmHg 43%
    22:00 +30°C° 0 mm 3 mps 751 mmHg 46%
    23:00 +29°C° 0 mm 3 mps 751 mmHg 48%

    Mañana, 23 Agosto, Miércoles

    Tiempo Temperatura Precipitaciones Viento Presión Humedad
    00:00 +29°C° 0 mm 3 mps 751 mmHg 51%
    01:00 +28°C° 0 mm 3 mps 751 mmHg 54%
    02:00 +28°C° 0 mm 3 mps 751 mmHg 57%
    03:00 +27°C° 0 mm 3 mps 751 mmHg 59%
    04:00 +27°C° 0 mm 2 mps 751 mmHg 61%
    05:00 +27°C° 0 mm 2 mps 751 mmHg 62%
    06:00 +26°C° 0 mm 2 mps 751 mmHg 63%
    07:00 +28°C° 0 mm 2 mps 751 mmHg 53%
    08:00 +30°C° 0 mm 2 mps 752 mmHg 44%
    09:00 +32°C° 0 mm 2 mps 752 mmHg 35%
    10:00 +34°C° 0 mm 3 mps 752 mmHg 31%
    11:00 +36°C° 0 mm 3 mps 752 mmHg 28%
    12:00 +37°C° 0 mm 4 mps 752 mmHg 24%
    13:00 +37°C° 0 mm 4 mps 751 mmHg 25%
    14:00 +37°C° 0 mm 5 mps 751 mmHg 26%
    15:00 +39°C° 0 mm 5 mps 751 mmHg 28%
    16:00 +37°C° 0 mm 5 mps 751 mmHg 31%
    17:00 +36°C° 0 mm 5 mps 751 mmHg 33%
    18:00 +35°C° 0 mm 4 mps 750 mmHg 36%
    19:00 +34°C° 0 mm 4 mps 751 mmHg 39%
    20:00 +33°C° 0 mm 3 mps 751 mmHg 42%
    21:00 +31°C° 0 mm 3 mps 751 mmHg 45%
    22:00 +31°C° 0 mm 2 mps 751 mmHg 47%
    23:00 +30°C° 0 mm 2 mps 751 mmHg 49%

    Pasado mañana, 24 Agosto, Jueves

    Tiempo Temperatura Precipitaciones Viento Presión Humedad
    00:00 +30°C° 0 mm 2 mps 751 mmHg 51%
    01:00 +29°C° 0 mm 2 mps 751 mmHg 54%
    02:00 +28°C° 0 mm 2 mps 751 mmHg 58%
    03:00 +28°C° 0 mm 2 mps 751 mmHg 61%
    04:00 +27°C° 0 mm 2 mps 751 mmHg 64%
    05:00 +27°C° 0 mm 1 mps 751 mmHg 66%
    06:00 +27°C° 0 mm 1 mps 751 mmHg 68%
    07:00 +29°C° 0 mm 1 mps 751 mmHg 60%
    08:00 +30°C° 0 mm 1 mps 751 mmHg 51%
    09:00 +32°C° 0 mm 1 mps 752 mmHg 42%
    10:00 +34°C° 0 mm 2 mps 752 mmHg 38%
    11:00 +36°C° 0 mm 2 mps 751 mmHg 33%
    12:00 +37°C° 0 mm 3 mps 751 mmHg 29%
    13:00 +37°C° 0 mm 3 mps 751 mmHg 30%
    14:00 +37°C° 0 mm 4 mps 750 mmHg 32%
    15:00 +37°C° 0 mm 4 mps 750 mmHg 33%
    16:00 +36°C° 0 mm 4 mps 750 mmHg 35%
    17:00 +35°C° 0 mm 3 mps 750 mmHg 38%
    18:00 +35°C° 0 mm 3 mps 750 mmHg 40%
    19:00 +34°C° 0 mm 2 mps 750 mmHg 42%
    20:00 +34°C° 0 mm 2 mps 751 mmHg 43%
    21:00 +32°C° 0 mm 1 mps 751 mmHg 45%
    22:00 +31°C° 0 mm 1 mps 751 mmHg 47%
    23:00 +31°C° 0 mm 1 mps 751 mmHg 50%

    25 Agosto, Viernes

    Tiempo Temperatura Precipitaciones Viento Presión Humedad
    00:00 +30°C° 0 mm 1 mps 751 mmHg 52%
    01:00 +30°C° 0 mm 1 mps 750 mmHg 54%
    02:00 +30°C° 0 mm 1 mps 750 mmHg 56%
    03:00 +29°C° 0 mm 1 mps 750 mmHg 58%
    04:00 +29°C° 0,1 mm 2 mps 750 mmHg 57%
    05:00 +30°C° 0,1 mm 2 mps 750 mmHg 55%
    06:00 +30°C° 0,1 mm 2 mps 750 mmHg 54%
    07:00 +31°C° 0 mm 2 mps 750 mmHg 49%
    08:00 +32°C° 0 mm 2 mps 750 mmHg 45%
    09:00 +35°C° 0 mm 3 mps 750 mmHg 40%
    10:00 +36°C° 0 mm 3 mps 750 mmHg 36%
    11:00 +38°C° 0 mm 3 mps 750 mmHg 31%
    12:00 +40°C° 0 mm 3 mps 750 mmHg 27%
    13:00 +41°C° 0 mm 4 mps 749 mmHg 27%
    14:00 +42°C° 0 mm 5 mps 749 mmHg 26%
    15:00 +42°C° 0 mm 5 mps 748 mmHg 25%
    16:00 +41°C° 0 mm 5 mps 748 mmHg 27%
    17:00 +40°C° 0 mm 4 mps 748 mmHg 29%
    18:00 +38°C° 0 mm 4 mps 748 mmHg 31%
    19:00 +37°C° 0 mm 3 mps 748 mmHg 33%
    20:00 +36°C° 0 mm 2 mps 749 mmHg 35%
    21:00 +35°C° 0 mm 1 mps 749 mmHg 37%
    22:00 +35°C° 0,1 mm 2 mps 749 mmHg 38%
    23:00 +35°C° 0,1 mm 2 mps 749 mmHg 39%

    26 Agosto, Sábado

    Tiempo Temperatura Precipitaciones Viento Presión Humedad
    00:00 +34°C° 0,1 mm 2 mps 749 mmHg 40%
    01:00 +32°C° 0 mm 2 mps 748 mmHg 42%
    02:00 +32°C° 0 mm 2 mps 748 mmHg 44%
    03:00 +31°C° 0 mm 2 mps 748 mmHg 46%
    04:00 +31°C° 0 mm 2 mps 748 mmHg 49%
    05:00 +30°C° 0 mm 1 mps 748 mmHg 52%
    06:00 +30°C° 0 mm 1 mps 748 mmHg 55%
    07:00 +31°C° 0 mm 1 mps 748 mmHg 51%
    08:00 +32°C° 0 mm 1 mps 749 mmHg 46%
    09:00 +33°C° 0 mm 1 mps 749 mmHg 42%
    10:00 +35°C° 0 mm 1 mps 749 mmHg 38%
    11:00 +37°C° 0 mm 2 mps 749 mmHg 34%
    12:00 +38°C° 0 mm 2 mps 749 mmHg 30%
    13:00 +39°C° 0 mm 3 mps 748 mmHg 30%
    14:00 +39°C° 0 mm 3 mps 748 mmHg 30%
    15:00 +40°C° 0 mm 4 mps 748 mmHg 30%
    16:00 +38°C° 0 mm 3 mps 748 mmHg 34%
    17:00 +37°C° 0 mm 3 mps 747 mmHg 37%
    18:00 +36°C° 0 mm 3 mps 747 mmHg 40%
    19:00 +35°C° 0 mm 3 mps 748 mmHg 43%
    20:00 +34°C° 0 mm 3 mps 748 mmHg 47%
    21:00 +32°C° 0 mm 2 mps 748 mmHg 50%
    22:00 +33°C° 0 mm 3 mps 748 mmHg 48%
    23:00 +34°C° 0 mm 3 mps 748 mmHg 47%

    27 Agosto, Domingo

    Tiempo Temperatura Precipitaciones Viento Presión Humedad
    00:00 +34°C° 0 mm 3 mps 748 mmHg 45%
    01:00 +34°C° 0 mm 2 mps 748 mmHg 45%
    02:00 +34°C° 0 mm 2 mps 748 mmHg 45%
    03:00 +32°C° 0 mm 2 mps 748 mmHg 45%
    04:00 +32°C° 0 mm 2 mps 748 mmHg 45%
    05:00 +32°C° 0 mm 2 mps 748 mmHg 45%
    06:00 +32°C° 0 mm 2 mps 748 mmHg 44%
    07:00 +34°C° 0 mm 2 mps 748 mmHg 41%
    08:00 +35°C° 0 mm 2 mps 749 mmHg 37%
    09:00 +36°C° 0 mm 2 mps 749 mmHg 34%
    10:00 +37°C° 0,1 mm 3 mps 749 mmHg 32%
    11:00 +38°C° 0,1 mm 3 mps 748 mmHg 30%
    12:00 +38°C° 0,1 mm 3 mps 748 mmHg 28%
    13:00 +38°C° 0 mm 3 mps 748 mmHg 30%
    14:00 +38°C° 0 mm 3 mps 748 mmHg 32%
    15:00 +38°C° 0 mm 3 mps 747 mmHg 34%
    16:00 +36°C° 0 mm 3 mps 748 mmHg 38%
    17:00 +35°C° 0 mm 3 mps 748 mmHg 42%
    18:00 +34°C° 0 mm 3 mps 748 mmHg 47%
    19:00 +33°C° 0 mm 4 mps 748 mmHg 51%
    20:00 +32°C° 0 mm 4 mps 749 mmHg 55%
    21:00 +30°C° 0 mm 5 mps 749 mmHg 59%
    22:00 +30°C° 0 mm 5 mps 749 mmHg 59%
    23:00 +29°C° 0 mm 5 mps 749 mmHg 59%
    Mostrar más